Flag for Germany Weather past 2 weeks in Speyer, Rhineland-Palatinate, Germany

Now
52 °F

Light rain. Partly sunny.


Feels Like: 47 °F
Forecast: 46 / 51 °F
Wind: 15 mph from Southwest

Location: Baden Wurttemberg - Neuostheim

Current Time: Mar 29, 2015 at 10:00:04 PM

Latest Report: Mar 29, 2015 at 7:50 PM


Visibility: N/A

Pressure: 29.56 "Hg

Humidity: 94%

Dew point: 50 °F

Location of SpeyerLocation

Historic Weather in Speyer — Graph

°F

Speyer temperature yesterday

Maximum temperature yesterday: 57 °F (at 2:50 PM)
Minimum temperature yesterday: 37 °F (at 5:50 AM)
Average temperature yesterday: 50 °F

Past Weeks' High & Low Weather Summary

 TemperatureHumidityPressure
High64 °F (Mar 17, 3:50 PM)100% (Mar 21, 9:20 AM)30.30 "Hg (Mar 21, 9:20 AM)
Low30 °F (Mar 24, 5:20 AM)34% (Mar 20, 3:50 PM)29.56 "Hg (Mar 29, 6:20 PM)
Average49 °F64%30.05 "Hg
* Reported Mar 14 6:20 PM — Mar 29 7:50 PM, Speyer, Weather by CustomWeather, © 2015

Note: Actual official high and low records may vary slightly from our data, if they occured in-between our weather recording intervals... More about our weather records

Advertising

Speyer weather history for previous 24 hours

 ConditionsComfort  
Time TempWeatherWind HumidityBarometerVisibility
7:50 PM
Sun, Mar 29
52 °FLight rain. Partly sunny.15 mph94%29.56 "HgN/A
7:20 PM52 °FLight rain. Broken clouds.15 mph94%29.56 "HgN/A
6:50 PM54 °FLight rain. Partly sunny.20 mph82%29.56 "HgN/A
6:20 PM54 °FLight rain. Partly sunny.16 mph82%29.56 "HgN/A
5:50 PM52 °FLight rain. Partly sunny.17 mph88%29.59 "HgN/A
5:20 PM52 °FLight rain. Partly sunny.16 mph94%29.59 "HgN/A
4:50 PM52 °FLight rain. Partly sunny.17 mph88%29.62 "HgN/A
4:20 PM52 °FLight rain. Partly sunny.14 mph88%29.65 "HgN/A
3:50 PM54 °FLight rain. Partly sunny.15 mph77%29.65 "HgN/A
3:20 PM54 °FLight rain. Partly sunny.14 mph72%29.68 "HgN/A
2:50 PM54 °FPartly sunny.14 mph72%29.71 "HgN/A
2:20 PM54 °FPartly sunny.15 mph72%29.71 "HgN/A
1:50 PM54 °FLight rain. Partly sunny.15 mph72%29.74 "HgN/A
1:20 PM54 °FOvercast.14 mph72%29.74 "HgN/A
12:50 PM54 °FBroken clouds.15 mph72%29.77 "HgN/A
12:20 PM54 °FPartly sunny.15 mph67%29.77 "HgN/A
11:50 AM54 °FMostly cloudy.14 mph72%29.77 "HgN/A
10:50 AM54 °FPartly sunny.10 mph77%29.80 "HgN/A
10:20 AM52 °FLight rain. Partly sunny.12 mph82%29.80 "HgN/A
9:50 AM52 °FLight rain. Partly sunny.8 mph88%29.80 "HgN/A
9:20 AM52 °FLight rain. Partly sunny.10 mph88%29.83 "HgN/A
8:50 AM52 °FLight rain. Partly sunny.12 mph88%29.83 "HgN/A
8:20 AM52 °FOvercast.10 mph88%29.83 "HgN/A
7:50 AM52 °FOvercast.10 mph88%29.83 "HgN/A
7:20 AM52 °FPartly cloudy.10 mph88%29.86 "HgN/A
Weather by CustomWeather, © 2015

See weather overviewHow to use our weather pages